Location: Unspecified
(0.0000°N, 0.0000°E)
Time: 06:30:54
(UTC+00:00)

Vanguard 2 - Pass Details

Date: 21 May 2026
Orbit: 553 x 2894 km, 32.9° (Epoch: 9 June)

Event Time Altitude Azimuth Distance (km) Brightness Sun altitude
Rises 05:37:43 0° 318° (NW) 6,640 12.1 -4.4°
Reaches altitude 10° 05:43:26 10° 328° (NNW) 5,434 11.7 -3.1°
Maximum altitude 05:55:59 29° 22° (NNE) 3,367 11.4 -0.2°
Drops below altitude 10° 06:04:58 10° 78° (ENE) 3,875 13.4 2.0°
Sets 06:08:10 0° 89° (E) 4,531 13.1 2.7°
